Weather History for Shelton, WA

Change the Weather History Date:

Wednesday, February 13, 2013

  Actual Average Record
Temperature  
Mean Temperature 42 °F -  
Max Temperature 48 °F 50 °F 61 °F (1968)
Min Temperature 37 °F 36 °F 15 °F (1949)
Degree Days  
Heating Degree Days 22    
Moisture  
Dew Point 41 °F    
Average Humidity 91    
Maximum Humidity 100    
Minimum Humidity 74    
Precipitation  
Precipitation 0.02 in - - ()
Sea Level Pressure  
Sea Level Pressure 30.40 in    
Wind  
Wind Speed 10 mph (WSW)    
Max Wind Speed 17 mph    
Max Gust Speed 24 mph    
Visibility 10 miles    
Events Rain    
Averages and records for this station are not official NWS values.
T = Trace of Precipitation, MM = Missing Value Source: NWS Daily Summary

Daily Weather History Graph

Daily Weather History Graph

Search for Another Location

Airport:

Trip Planner

Search our weather history database for the weather conditions in past years. The results will help you decide how hot, cold, wet, or windy it might be!

Date:

Astronomy

Feb. 13, 2013 Rise Set
Actual Time 7:20 AM PST 5:34 PM PST
Civil Twilight 6:48 AM PST 6:05 PM PST
Nautical Twilight 6:12 AM PST 6:41 PM PST
Astronomical Twilight 5:37 AM PST 7:17 PM PST
Moon 8:33 AM PST (2/13) 10:03 PM PST (2/13)
Length of Visible Light 11h 17m
Length of Day
10h 13m
Waxing Crescent, 14% of the Moon is Illuminated
Feb 13
Waxing Crescent
Feb 17
First Quarter
Feb 25
Full
Mar 4
Last Quarter
Mar 11
New

Hourly Weather History & Observations

Time (PST) Temp. Windchill Dew Point Humidity Pressure Visibility Wind Dir Wind Speed Gust Speed Precip Events Conditions
12:24 AM 46.4 °F 40.7 °F 46.4 °F 100% 30.31 in 10.0 mi SSW 12.7 mph - N/A   Overcast
12:39 AM 46.4 °F 41.1 °F 46.4 °F 100% 30.32 in 9.0 mi SW 11.5 mph - 0.00 in Rain Light Rain
12:53 AM 46.9 °F - 45.0 °F 93% 30.33 in 10.0 mi SW 11.5 mph - 0.02 in Rain Light Rain
1:00 AM 46.4 °F 41.5 °F 44.6 °F 93% 30.32 in 10.0 mi SW 10.4 mph - 0.00 in   Overcast
1:06 AM 46.4 °F 41.9 °F 44.6 °F 93% 30.33 in 10.0 mi SW 9.2 mph - 0.00 in   Overcast
1:19 AM 44.6 °F 38.8 °F 44.6 °F 100% 30.33 in 10.0 mi SW 11.5 mph - 0.00 in   Mostly Cloudy
1:53 AM 44.1 °F 37.7 °F 43.0 °F 96% 30.33 in 10.0 mi SW 12.7 mph - 0.00 in   Scattered Clouds
2:42 AM 42.8 °F 36.2 °F 42.8 °F 100% 30.34 in 10.0 mi SW 12.7 mph - N/A   Partly Cloudy
2:53 AM 44.1 °F 39.0 °F 41.0 °F 89% 30.35 in 10.0 mi WSW 9.2 mph - N/A   Partly Cloudy
3:01 AM 42.8 °F 37.0 °F 42.8 °F 100% 30.34 in 10.0 mi SW 10.4 mph - N/A   Mostly Cloudy
3:53 AM 42.1 °F 36.6 °F 41.0 °F 96% 30.36 in 10.0 mi SW 9.2 mph - N/A   Partly Cloudy
4:53 AM 43.0 °F 37.7 °F 39.9 °F 89% 30.37 in 10.0 mi WSW 9.2 mph - N/A   Clear
5:53 AM 42.1 °F 33.9 °F 39.9 °F 92% 30.36 in 10.0 mi WSW 17.3 mph - N/A   Clear
6:53 AM 42.1 °F 36.6 °F 39.9 °F 92% 30.38 in 10.0 mi WSW 9.2 mph - N/A   Partly Cloudy
7:53 AM 42.1 °F 35.7 °F 39.9 °F 92% 30.39 in 10.0 mi WSW 11.5 mph - N/A   Overcast
8:53 AM 43.0 °F 38.2 °F 39.9 °F 89% 30.41 in 10.0 mi WSW 8.1 mph - N/A   Overcast
9:53 AM 44.1 °F 40.8 °F 39.9 °F 85% 30.43 in 10.0 mi WSW 5.8 mph - N/A   Overcast
10:53 AM 46.0 °F 40.6 °F 41.0 °F 83% 30.43 in 10.0 mi SW 11.5 mph - N/A   Mostly Cloudy
11:53 AM 48.0 °F - 41.0 °F 77% 30.43 in 10.0 mi WSW 10.4 mph 20.7 mph N/A   Mostly Cloudy
12:53 PM 46.9 °F - 39.9 °F 77% 30.43 in 10.0 mi WSW 16.1 mph 24.2 mph N/A   Overcast
1:53 PM 48.0 °F - 39.9 °F 74% 30.42 in 10.0 mi WSW 11.5 mph - N/A   Overcast
2:53 PM 46.9 °F - 42.1 °F 83% 30.41 in 10.0 mi SW 12.7 mph - N/A   Overcast
3:53 PM 46.9 °F - 39.9 °F 77% 30.42 in 10.0 mi WSW 10.4 mph - N/A   Overcast
4:53 PM 46.9 °F - 39.9 °F 77% 30.43 in 10.0 mi WSW 8.1 mph - N/A   Overcast
5:53 PM 44.1 °F 40.1 °F 39.0 °F 82% 30.44 in 10.0 mi WSW 6.9 mph - N/A   Mostly Cloudy
6:53 PM 42.1 °F 38.4 °F 39.0 °F 89% 30.44 in 10.0 mi WSW 5.8 mph - N/A   Clear
7:53 PM 39.9 °F - 39.0 °F 97% 30.47 in 10.0 mi Calm Calm - N/A   Partly Cloudy
8:53 PM 41.0 °F 38.0 °F 39.9 °F 96% 30.47 in 10.0 mi West 4.6 mph - N/A   Mostly Cloudy
9:24 PM 37.4 °F 32.8 °F 37.4 °F 100% 30.46 in 10.0 mi WSW 5.8 mph - N/A   Mostly Cloudy
9:53 PM 39.0 °F 34.8 °F 37.9 °F 96% 30.48 in 10.0 mi WSW 5.8 mph - N/A   Partly Cloudy
10:05 PM 39.2 °F - 37.4 °F 93% 30.47 in 10.0 mi Calm Calm - N/A   Mostly Cloudy
10:15 PM 39.2 °F 37.0 °F 39.2 °F 100% 30.47 in 10.0 mi WSW 3.5 mph - N/A   Overcast
10:53 PM 39.0 °F 34.8 °F 39.0 °F 100% 30.49 in 5.0 mi WSW 5.8 mph - N/A   Overcast
11:53 PM 39.9 °F 35.8 °F 39.0 °F 97% 30.50 in 4.0 mi WSW 5.8 mph - N/A   Overcast